Volkel, Netherlands

3:04 AM CET on February 22, 2017 (GMT +0100)
Volkel Air Base

Weather History for EHVK - August, 2013

Change the Weather History Date:

Wednesday, August 21, 2013

  Actual Average Record
Temperature  
Mean Temperature 62 °F -  
Max Temperature 75 °F 67 °F 84 °F (1997)
Min Temperature 50 °F 50 °F 44 °F (2014)
Degree Days  
Heating Degree Days 2    
Growing Degree Days 12 (Base 50)    
Moisture  
Dew Point 52 °F    
Average Humidity 68    
Maximum Humidity 94    
Minimum Humidity 44    
Precipitation  
Precipitation 0.00 in - - ()
Sea Level Pressure  
Sea Level Pressure 30.25 in    
Wind  
Wind Speed 2 mph ()    
Max Wind Speed 6 mph    
Max Gust Speed -    
Visibility 6.1 miles    
Events      
Averages and records for this station are not official NWS values.
T = Trace of Precipitation, MM = Missing Value Source: Averaged Metar Reports

Daily Weather History Graph

Daily Weather History Graph

Search for Another Location

Airport or City:

Trip Planner

Search our weather history database for the weather conditions in past years. The results will help you decide how hot, cold, wet, or windy it might be!

Date:

Astronomy

Aug. 21, 2013 Rise Set
Actual Time 6:31 AM CEST 8:47 PM CEST
Civil Twilight 5:55 AM CEST 9:23 PM CEST
Nautical Twilight 5:09 AM CEST 10:09 PM CEST
Astronomical Twilight 4:15 AM CEST 11:02 PM CEST
Moon 8:32 PM CEST (8/21) 7:03 AM CEST (8/21)
Length of Visible Light 15h 28m
Length of Day
14h 15m
Full, 100% of the Moon is Illuminated
Aug 21
Full
Aug 28
Last Quarter
Sep 5
New
Sep 12
First Quarter
Sep 19
Full

Hourly Weather History & Observations

Time (CEST) Temp. Dew Point Humidity Pressure Visibility Wind Dir Wind Speed Gust Speed Precip Events Conditions
12:25 AM 55.4 °F 50.0 °F 82% 30.36 in 6.2 mi ESE 2.3 mph - N/A   Mostly Cloudy
12:55 AM 53.6 °F 50.0 °F 88% 30.33 in 6.2 mi ESE 3.5 mph - N/A   Unknown
1:25 AM 57.2 °F 51.8 °F 82% 30.33 in 6.2 mi SE 4.6 mph - N/A   Unknown
1:55 AM 55.4 °F 48.2 °F 77% 30.33 in 6.2 mi SSE 3.5 mph - N/A   Unknown
2:25 AM 53.6 °F 50.0 °F 88% 30.33 in 6.2 mi East 2.3 mph - N/A   Unknown
2:55 AM 51.8 °F 50.0 °F 94% 30.33 in 6.2 mi ENE 2.3 mph - N/A   Mostly Cloudy
3:25 AM 51.8 °F 50.0 °F 94% 30.33 in 6.2 mi East 1.2 mph - N/A   Overcast
3:55 AM 51.8 °F 50.0 °F 94% 30.33 in 6.2 mi ESE 2.3 mph - N/A   Unknown
4:25 AM 50.0 °F 48.2 °F 94% 30.30 in 6.2 mi SSE 1.2 mph - N/A   Unknown
4:55 AM 51.8 °F 50.0 °F 94% 30.30 in 6.2 mi East 2.3 mph - N/A   Overcast
5:25 AM 51.8 °F 50.0 °F 94% 30.30 in 6.2 mi Calm Calm - N/A   Mostly Cloudy
5:55 AM 51.8 °F 50.0 °F 94% 30.30 in 6.2 mi South 1.2 mph - N/A   Mostly Cloudy
6:25 AM 51.8 °F 50.0 °F 94% 30.30 in 6.2 mi SE 1.2 mph - N/A   Scattered Clouds
6:55 AM 51.8 °F 50.0 °F 94% 30.30 in 6.2 mi Calm Calm - N/A   Partly Cloudy
7:25 AM 51.8 °F 50.0 °F 94% 30.30 in 6.2 mi SE 1.2 mph - N/A   Unknown
7:55 AM 53.6 °F 50.0 °F 88% 30.30 in 6.2 mi East 2.3 mph - N/A   Unknown
8:25 AM 55.4 °F 51.8 °F 88% 30.30 in 6.2 mi SE 1.2 mph - N/A   Unknown
8:55 AM 59.0 °F 53.6 °F 82% 30.30 in 6.2 mi South 1.2 mph - N/A   Scattered Clouds
9:25 AM 60.8 °F 51.8 °F 72% 30.30 in 6.2 mi South 2.3 mph - N/A   Mostly Cloudy
9:55 AM 62.6 °F 51.8 °F 68% 30.30 in 6.2 mi South 3.5 mph - N/A   Mostly Cloudy
10:25 AM 64.4 °F 51.8 °F 64% 30.30 in 6.2 mi SSE 3.5 mph - N/A   Unknown
10:55 AM 66.2 °F 51.8 °F 60% 30.30 in 6.2 mi South 3.5 mph - N/A   Unknown
11:25 AM 69.8 °F 53.6 °F 56% 30.30 in 6.2 mi South 3.5 mph - N/A   Unknown
11:55 AM 69.8 °F 51.8 °F 53% 30.27 in 6.2 mi South 4.6 mph - N/A   Unknown
12:25 PM 71.6 °F 50.0 °F 46% 30.27 in 6.2 mi SSW 5.8 mph - N/A   Partly Cloudy
12:55 PM 71.6 °F 50.0 °F 46% 30.27 in 6.2 mi SSW 5.8 mph - N/A   Unknown
1:25 PM 71.6 °F 50.0 °F 46% 30.27 in 6.2 mi SSW 5.8 mph - N/A   Unknown
1:55 PM 73.4 °F 51.8 °F 47% 30.27 in 6.2 mi SSW 5.8 mph - N/A   Scattered Clouds
2:25 PM 73.4 °F 50.0 °F 44% 30.27 in 6.2 mi SSW 3.5 mph - N/A   Unknown
2:55 PM 73.4 °F 50.0 °F 44% 30.24 in 6.2 mi South 1.2 mph - N/A   Partly Cloudy
3:25 PM 73.4 °F 50.0 °F 44% 30.24 in 6.2 mi South 3.5 mph - N/A   Mostly Cloudy
3:55 PM 73.4 °F 51.8 °F 47% 30.24 in 6.2 mi NE 2.3 mph - N/A   Mostly Cloudy
4:10 PM 73.4 °F 51.8 °F 47% 30.21 in 6.2 mi SSE 5.8 mph - N/A   Mostly Cloudy
4:25 PM 73.4 °F 51.8 °F 47% 30.21 in 6.2 mi ENE 3.5 mph - N/A   Mostly Cloudy
4:55 PM 73.4 °F 51.8 °F 47% 30.21 in 6.2 mi South 2.3 mph - N/A   Partly Cloudy
5:25 PM 75.2 °F 51.8 °F 44% 30.21 in 6.2 mi SSE 2.3 mph - N/A   Unknown
5:55 PM 75.2 °F 51.8 °F 44% 30.21 in 6.2 mi South 2.3 mph - N/A   Unknown
6:25 PM 75.2 °F 51.8 °F 44% 30.21 in 6.2 mi NNW 2.3 mph - N/A   Partly Cloudy
6:55 PM 73.4 °F 51.8 °F 47% 30.18 in 6.2 mi ESE 3.5 mph - N/A   Partly Cloudy
7:25 PM 71.6 °F 53.6 °F 53% 30.18 in 6.2 mi East 3.5 mph - N/A   Scattered Clouds
7:55 PM 71.6 °F 55.4 °F 57% 30.18 in 6.2 mi East 4.6 mph - N/A   Overcast
8:25 PM 69.8 °F 53.6 °F 56% 30.18 in 6.2 mi East 4.6 mph - N/A   Overcast
8:55 PM 66.2 °F 53.6 °F 64% 30.18 in 6.2 mi ENE 2.3 mph - N/A   Unknown
9:01 PM 66.2 °F 53.6 °F 64% 30.18 in 3.1 mi ENE 2.3 mph - N/A   Haze
9:05 PM 66.2 °F 53.6 °F 64% 30.18 in 6.2 mi ENE 2.3 mph - N/A   Unknown
9:09 PM 64.4 °F 53.6 °F 68% 30.18 in 4.3 mi ENE 2.3 mph - N/A   Haze
9:14 PM 62.6 °F 53.6 °F 72% 30.18 in 6.2 mi ENE 1.2 mph - N/A   Unknown
9:25 PM 62.6 °F 53.6 °F 72% 30.18 in 6.2 mi ENE 1.2 mph - N/A   Unknown
9:55 PM 62.6 °F 53.6 °F 72% 30.18 in 6.2 mi ESE 1.2 mph - N/A   Unknown
10:25 PM 62.6 °F 53.6 °F 72% 30.18 in 6.2 mi East 2.3 mph - N/A   Unknown
10:55 PM 60.8 °F 53.6 °F 77% 30.18 in 6.2 mi ESE 1.2 mph - N/A   Unknown
11:25 PM 60.8 °F 53.6 °F 77% 30.18 in 6.2 mi East 2.3 mph - N/A   Unknown
11:55 PM 59.0 °F 53.6 °F 82% 30.18 in 6.2 mi ESE 3.5 mph - N/A   Unknown